This is the latest recevied weather packets stored in our database for station/object N5CSU. If no packets are shown the sender has not sent any weather packets the latest 10 day(s).
| Time | Temp. | Humidity | Pressure | Rain* | Wind** | Luminosity | Snow |
|---|---|---|---|---|---|---|---|
| 1777994062 | 24.44° C | 81% | 1005.6 hPa | 0 mm | - | 31 W/m² | - |
| 1777993759 | 24.44° C | 82% | 1005.6 hPa | 0 mm | - | 28 W/m² | - |
| 1777993456 | 24.44° C | 82% | 1005.7 hPa | 0 mm | - | 27 W/m² | - |
| 1777993150 | 24.44° C | 82% | 1005.7 hPa | 0 mm | - | 24 W/m² | - |
| 1777992849 | 23.89° C | 82% | 1005.9 hPa | 0 mm | - | 22 W/m² | - |
| 1777992547 | 23.89° C | 82% | 1005.8 hPa | 0 mm | - | 19 W/m² | - |
| 1777992244 | 23.89° C | 82% | 1005.7 hPa | 0 mm | - | 18 W/m² | - |
| 1777991941 | 23.89° C | 82% | 1005.6 hPa | 0 mm | - | 19 W/m² | - |
| 1777991638 | 23.89° C | 83% | 1005.5 hPa | 0 mm | - | 20 W/m² | - |
| 1777991335 | 23.89° C | 82% | 1005.6 hPa | 0 mm | - | 20 W/m² | - |
| 1777991033 | 23.89° C | 83% | 1005.4 hPa | 0 mm | - | 22 W/m² | - |
| 1777990730 | 23.33° C | 84% | 1005.4 hPa | 0 mm | - | 20 W/m² | - |
| 1777990427 | 23.33° C | 84% | 1005.3 hPa | 0 mm | - | 20 W/m² | - |
| 1777989820 | 22.78° C | 85% | 1005.6 hPa | 0 mm | - | 21 W/m² | - |
| 1777989518 | 22.78° C | 85% | 1005.7 hPa | 0 mm | - | 12 W/m² | - |
| 1777989213 | 22.78° C | 86% | 1005.9 hPa | 0 mm | - | 12 W/m² | - |
| 1777988910 | 22.22° C | 86% | 1005.8 hPa | 0 mm | - | 7 W/m² | - |
| 1777988607 | 22.22° C | 86% | 1005.7 hPa | 0 mm | - | 9 W/m² | - |
| 1777988303 | 22.22° C | 86% | 1005.4 hPa | 0 mm | - | 10 W/m² | - |
| 1777988001 | 22.22° C | 86% | 1005.4 hPa | 0 mm | - | 13 W/m² | - |
| 1777987696 | 22.22° C | 87% | 1005.3 hPa | 0 mm | - | 12 W/m² | - |
| 1777987393 | 22.22° C | 87% | 1005.4 hPa | 0 mm | - | 8 W/m² | - |
| 1777987090 | 22.22° C | 87% | 1005.2 hPa | 0 mm | - | 8 W/m² | - |
| 1777986788 | 22.22° C | 87% | 1005.4 hPa | 0 mm | - | 6 W/m² | - |
| 1777986485 | 22.22° C | 87% | 1005.2 hPa | 0 mm | - | 6 W/m² | - |
* Rain latest hour (hover to see other rain measurements)
** Current wind speed in m/s (hover to see current wind gust speed)